Location: Albany
(35.0000°S, 118.0000°E)
Time: 01:48:41
(UTC-04:00)

Transit 2A - Visible Passes

Search period start: 28 July 2015 00:00
Search period end: 07 August 2015 00:00
Orbit: 597 x 964 km, 66.7° (Epoch: 26 July)

Date Brightness Start Highest point End Pass type
(mag) Time Alt. Az. Time Alt. Az. Time Alt. Az.
28 Jul 7.7 07:28:01 10° N 07:29:02 17° N 07:29:02 17° N visible
28 Jul 8.2 16:19:04 19° SSE 16:21:44 25° SE 16:26:54 10° ENE visible
28 Jul 6.6 17:59:37 11° SW 18:05:19 52° WNW 18:11:25 10° N visible
29 Jul 6.9 06:54:47 10° NNE 06:57:14 24° NE 06:57:14 24° NE visible
29 Jul 8.8 08:37:49 10° WNW 08:37:50 10° WNW 08:37:50 10° WNW visible
29 Jul 8.5 15:46:50 18° SE 15:47:38 19° SE 15:51:57 10° E visible
29 Jul 6.3 17:27:24 22° SSW 17:31:31 75° WNW 17:37:51 10° NNE visible
30 Jul 7.1 06:22:02 10° NE 06:24:50 17° ENE 06:25:27 17° E visible
30 Jul 7.5 08:03:25 10° NW 08:06:02 29° W 08:06:02 29° W visible
30 Jul 9.0 15:14:43 13° ESE 15:14:43 13° ESE 15:16:28 10° ESE visible
30 Jul 6.4 16:55:17 40° SSW 16:57:41 78° ESE 17:04:03 10° NNE visible
30 Jul 8.0 18:37:05 10° WSW 18:40:32 15° WNW 18:43:39 10° NW visible
31 Jul 7.7 05:50:52 10° ENE 05:51:11 10° ENE 05:51:50 10° E visible
31 Jul 6.0 07:29:18 10° NW 07:33:43 61° WSW 07:34:14 57° SSW visible
31 Jul 6.9 16:23:18 53° SE 16:23:47 55° ESE 16:30:01 10° NE visible
31 Jul 7.6 18:03:52 16° WSW 18:06:49 22° WNW 18:11:25 10° NNW visible
01 Aug 5.5 06:55:26 10° NNW 06:59:53 84° ENE 07:02:23 28° SSE visible
01 Aug 8.8 08:42:29 10° WSW 08:42:58 11° SW 08:42:58 11° SW visible
01 Aug 7.8 15:51:25 34° E 15:51:25 34° E 15:55:45 10° NE visible
01 Aug 7.1 17:32:00 31° W 17:33:05 32° WNW 17:38:34 10° N visible
02 Aug 5.9 06:21:49 10° N 06:26:07 51° ENE 06:30:27 12° SE visible
02 Aug 8.2 08:06:47 10° W 08:09:48 16° SW 08:11:02 15° SSW visible
02 Aug 8.8 15:19:37 16° ENE 15:19:37 16° ENE 15:21:13 10° ENE visible
02 Aug 6.8 17:00:13 44° NW 17:00:13 44° NW 17:05:21 10° N visible
03 Aug 6.5 05:48:29 10° N 05:52:24 31° ENE 05:56:41 10° SE visible
03 Aug 7.8 07:31:56 10° WNW 07:35:40 23° SW 07:39:00 13° S visible
03 Aug 7.5 16:28:31 32° N 16:28:31 32° N 16:31:51 10° NNE visible
04 Aug 7.2 06:57:27 10° WNW 07:01:38 35° SW 07:06:10 10° S visible
04 Aug 8.5 15:56:50 17° NNE 15:56:50 17° NNE 15:58:07 10° NNE visible
05 Aug 6.4 06:23:16 10° NW 06:27:41 54° WSW 06:32:33 10° SSE visible
06 Aug 5.8 05:49:20 10° NNW 05:53:49 86° WSW 05:58:47 10° SSE visible
06 Aug 8.8 07:37:28 10° SW 07:38:05 10° SW 07:38:26 10° SW visible
